S-NET B

Last updated on Wed Sep 23 2026 00:03:51 GMT+0000 (Coordinated Universal Time)

1 43187U 18014H 26265.17043165 .00003198 00000+0 16326-3 0 9996 2 43187 97.5254 169.3372 0009956 45.8873 314.3178 15.17396189473463
UTC large
Height (km)
Speed (km/s)
/
Latitude / Longitude
Inclination (degrees)
Orbital Period (minutes)
Azimuth
Elevation
Range (km)
Doppler Factor

Next 0 passes for location: London (51.5072 / 0.1276)

No passes found over London.
S-NET B